Find Starlink 32765

NORAD ID: 62747 Int'l Des: 2025-014 Owner: SPXS Country: US Constellation: starlink operational
LEOCIRCULAR

現在のビュー

3D地球を読み込み中...

About Starlink 32765

Starlink 32765 (NORAD 62747) is a starlink constellation satellite (v2 mini) launched Jan 21, 2025 by SPXS of US. It operates in LEO, CIRCULAR orbit with a mass of 730.00 kg.

次回通過

Passes for default location (London). Set your location on the main map for personalized predictions.

高度履歴

Loading altitude history...

軌道要素

1 62747U 25014N 26263.91505777 .00016643 00000-0 61269-3 0 9995
2 62747 43.0000 131.9329 0001371 277.5961 82.4734 15.27594707 93111
Epoch: Sep 20, 2026 • Age: 11 hours

現在のステータス

高度 484.7 km
遠地点 / 近地点 N/A
速度 7.63 km/s
衛星直下点 32.90°N, 35.03°E
打ち上げ日 Jan 21, 2025
運用期間 1.6 years
タイプ internet

技術仕様

分類 Payload
質量 730.00 kg
乾燥質量 700.00 kg
長さ 0.30 m
スパン 29.00 m
形状 ? Box + pan
製造者 SPXS
バスタイプ Starlink V2M
フェーズステータス In Orbit
所有者/国 SPXS/US

Most Searched